Preview of NWS' New Version of Forecast
This preview is not operational and should not be used for support decisions.

Regional Weather Roundup (RWR)

Issued by National Weather Service (NWS)

                            
000
ASUS43 KTOP 240459
RWRKS 

WEATHER ROUNDUP FOR KANSAS
NATIONAL WEATHER SERVICE GOODLAND KS
1200 AM CDT MON JUN 24 2019

NOTE:  "FAIR" INDICATES FEW OR NO CLOUDS BELOW 12,000 FEET WITH NO
SIGNIFICANT WEATHER AND/OR OBSTRUCTIONS TO VISIBILITY.

KSZ001>006-013>018-027>032-041>047-240600-
NORTHWEST KANSAS
  
CITY           SKY/WX    TMP DP  RH WIND       PRES   REMARKS
GOODLAND       CLEAR     49  47  93 N9        29.98F                  
HAYS           PTCLDY    59  55  87 NW9       29.92R                  
HILL CITY      MOCLDY    57  53  86 NW5       29.94R                  
RUSSELL        CLEAR     58  53  84 NW10      29.88R                  
$$

KSZ061>065-074>080-084>089-240600-
SOUTHWEST KANSAS
  
CITY           SKY/WX    TMP DP  RH WIND       PRES   REMARKS
DODGE CITY     CLEAR     58  52  80 NW9       29.95R                  
GARDEN CITY    CLEAR     55  49  80 N6        29.97S                  
GREAT BEND     PTCLDY    60  57  89 N10       29.91R                  
LIBERAL        CLEAR     56  52  86 N5        29.99R                  
$$

KSZ066>073-081>083-090>101-240600-
SOUTHEAST KANSAS
  
CITY           SKY/WX    TMP DP  RH WIND       PRES   REMARKS
CHANUTE        CLEAR     69  66  90 S7        29.81S                  
COFFEYVILLE    CLEAR     69  67  93 S6        29.81R                  
HUTCHINSON     CLEAR     65  60  84 MISG      29.85R                  
MEDICINE LODGE   N/A     66  59  78 NW3       29.87R                  
NEWTON         CLEAR     66  63  90 N5        29.85R                  
PARSONS        CLEAR     69  68  96 S3        29.83R                  
WICHITA INTL   CLEAR     71  62  73 NW5       29.84R                  
WICHITA JABRA  CLEAR     69  62  78 W8        29.84R                  
WICHITA MCCONL PTCLDY    71  60  67 W8        29.85R                  
WINFIELD       CLEAR     69  67  93 S7        29.86R                  
$$

KSZ007>012-019>026-033>040-048>060-102>105-240600-
NORTHEAST KANSAS
  
CITY           SKY/WX    TMP DP  RH WIND       PRES   REMARKS
CONCORDIA      CLEAR     59  55  87 W9        29.84R                  
EMPORIA        CLEAR     68  66  93 W3        29.80R                  
LAWRENCE       PTCLDY    68  66  93 CALM      29.77R                  
MANHATTAN      CLEAR     63  61  93 W3        29.81R                  
OLATHE IND     PTCLDY    68  65  90 SW9       29.79R                  
OLATHE EXE     CLEAR     67  65  93 SW6       29.78R                  
SALINA         CLEAR     62  58  86 NW8       29.85R                  
TOPEKA BILLARD CLEAR     69  63  81 W6        29.77R                  
TOPEKA FORBES  CLEAR     68  63  84 NW7       29.78R                  
$$